Year,Month,Day,Hour,Minute,Value (Times are PST for temperature in C)
2013,04,13,00,02,4.20
2013,04,13,00,03,4.20
2013,04,13,00,04,4.20
2013,04,13,00,05,4.20
2013,04,13,00,06,4.20
2013,04,13,00,07,4.20
2013,04,13,00,08,4.20
2013,04,13,00,10,4.20
2013,04,13,00,11,4.20
2013,04,13,00,12,4.20
2013,04,13,00,13,4.20
2013,04,13,00,14,4.30
2013,04,13,00,16,4.30
2013,04,13,00,17,4.30
2013,04,13,00,18,4.30
2013,04,13,00,20,4.30
2013,04,13,00,21,4.30
2013,04,13,00,22,4.30
2013,04,13,00,23,4.30
2013,04,13,00,24,4.30
2013,04,13,00,26,4.30
2013,04,13,00,27,4.30
2013,04,13,00,28,4.30
2013,04,13,00,30,4.30
2013,04,13,00,31,4.30
2013,04,13,00,32,4.20
2013,04,13,00,33,4.20
2013,04,13,00,35,4.20
2013,04,13,00,36,4.20
2013,04,13,00,37,4.20
2013,04,13,00,38,4.20
2013,04,13,00,39,4.20
2013,04,13,00,40,4.20
2013,04,13,00,41,4.20
2013,04,13,00,42,4.20
2013,04,13,00,43,4.20
2013,04,13,00,44,4.20
2013,04,13,00,45,4.20
2013,04,13,00,46,4.20
2013,04,13,00,47,4.20
2013,04,13,00,48,4.20
2013,04,13,00,49,4.20
2013,04,13,00,50,4.30
2013,04,13,00,51,4.30
2013,04,13,00,52,4.40
2013,04,13,00,53,4.40
2013,04,13,00,54,4.40
2013,04,13,00,55,4.40
2013,04,13,00,56,4.40
2013,04,13,00,57,4.40
2013,04,13,00,58,4.40
2013,04,13,00,59,4.40
2013,04,13,01,00,4.40
2013,04,13,01,01,4.40
2013,04,13,01,02,4.40
2013,04,13,01,03,4.30
2013,04,13,01,04,4.30
2013,04,13,01,05,4.30
2013,04,13,01,06,4.30
2013,04,13,01,07,4.30
2013,04,13,01,08,4.30
2013,04,13,01,10,4.30
2013,04,13,01,11,4.30
2013,04,13,01,12,4.30
2013,04,13,01,13,4.30
2013,04,13,01,15,4.30
2013,04,13,01,16,4.20
2013,04,13,01,17,4.20
2013,04,13,01,18,4.20
2013,04,13,01,19,4.20
2013,04,13,01,21,4.20
2013,04,13,01,22,4.20
2013,04,13,01,23,4.20
2013,04,13,01,24,4.30
2013,04,13,01,26,4.30
2013,04,13,01,27,4.30
2013,04,13,01,28,4.30
2013,04,13,01,29,4.30
2013,04,13,01,30,4.30
2013,04,13,01,31,4.30
2013,04,13,01,32,4.30
2013,04,13,01,33,4.30
2013,04,13,01,34,4.30
2013,04,13,01,35,4.30
2013,04,13,01,37,4.30
2013,04,13,01,38,4.30
2013,04,13,01,39,4.30
2013,04,13,01,40,4.30
2013,04,13,01,41,4.30
2013,04,13,01,42,4.30
2013,04,13,01,43,4.30
2013,04,13,01,44,4.30
2013,04,13,01,45,4.40
2013,04,13,01,46,4.40
2013,04,13,01,47,4.40
2013,04,13,01,48,4.40
2013,04,13,01,49,4.40
2013,04,13,01,50,4.30
2013,04,13,01,52,4.30
2013,04,13,01,53,4.30
2013,04,13,01,54,4.30
2013,04,13,01,55,4.30
2013,04,13,01,56,4.30
2013,04,13,01,57,4.30
2013,04,13,01,58,4.30
2013,04,13,01,59,4.20
2013,04,13,02,00,4.20
2013,04,13,02,01,4.20
2013,04,13,02,02,4.20
2013,04,13,02,03,4.20
2013,04,13,02,04,4.20
2013,04,13,02,05,4.10
2013,04,13,02,06,4.10
2013,04,13,02,07,4.10
2013,04,13,02,08,4.10
2013,04,13,02,09,4.00
2013,04,13,02,10,4.00
2013,04,13,02,12,3.90
2013,04,13,02,13,3.90
2013,04,13,02,14,3.80
2013,04,13,02,16,3.80
2013,04,13,02,17,3.70
2013,04,13,02,18,3.70
2013,04,13,02,19,3.70
2013,04,13,02,20,3.70
2013,04,13,02,21,3.60
2013,04,13,02,22,3.60
2013,04,13,02,23,3.60
2013,04,13,02,24,3.60
2013,04,13,02,26,3.60
2013,04,13,02,27,3.60
2013,04,13,02,28,3.60
2013,04,13,02,29,3.60
2013,04,13,02,31,3.60
2013,04,13,02,32,3.60
2013,04,13,02,33,3.60
2013,04,13,02,34,3.60
2013,04,13,02,36,3.60
2013,04,13,02,37,3.70
2013,04,13,02,38,3.70
2013,04,13,02,39,3.70
2013,04,13,02,41,3.70
2013,04,13,02,42,3.70
2013,04,13,02,43,3.70
2013,04,13,02,44,3.70
2013,04,13,02,45,3.70
2013,04,13,02,47,3.70
2013,04,13,02,48,3.70
2013,04,13,02,49,3.70
2013,04,13,02,50,3.80
2013,04,13,02,52,3.80
2013,04,13,02,53,3.80
2013,04,13,02,54,3.80
2013,04,13,02,55,3.70
2013,04,13,02,56,3.70
2013,04,13,02,57,3.70
2013,04,13,02,58,3.80
2013,04,13,02,59,3.80
2013,04,13,03,00,3.70
2013,04,13,03,01,3.70
2013,04,13,03,02,3.70
2013,04,13,03,03,3.70
2013,04,13,03,04,3.70
2013,04,13,03,06,3.70
2013,04,13,03,07,3.70
2013,04,13,03,08,3.70
2013,04,13,03,09,3.70
2013,04,13,03,11,3.70
2013,04,13,03,12,3.70
2013,04,13,03,13,3.80
2013,04,13,03,15,3.80
2013,04,13,03,17,3.80
2013,04,13,03,18,3.90
2013,04,13,03,19,3.90
2013,04,13,03,21,3.90
2013,04,13,03,22,3.90
2013,04,13,03,23,3.90
2013,04,13,03,24,3.90
2013,04,13,03,26,3.90
2013,04,13,03,27,3.90
2013,04,13,03,28,3.90
2013,04,13,03,30,3.80
2013,04,13,03,31,3.80
2013,04,13,03,32,3.80
2013,04,13,03,33,3.80
2013,04,13,03,34,3.80
2013,04,13,03,36,3.80
2013,04,13,03,37,3.80
2013,04,13,03,38,3.80
2013,04,13,03,39,3.80
2013,04,13,03,41,3.80
2013,04,13,03,42,3.80
2013,04,13,03,43,3.80
2013,04,13,03,45,3.80
2013,04,13,03,46,3.80
2013,04,13,03,47,3.70
2013,04,13,03,48,3.70
2013,04,13,03,49,3.70
2013,04,13,03,50,3.70
2013,04,13,03,51,3.70
2013,04,13,03,52,3.70
2013,04,13,03,53,3.70
2013,04,13,03,54,3.70
2013,04,13,03,55,3.70
2013,04,13,03,56,3.70
2013,04,13,03,57,3.70
2013,04,13,03,58,3.70
2013,04,13,03,59,3.70
2013,04,13,04,00,3.70
2013,04,13,04,01,3.70
2013,04,13,04,02,3.70
2013,04,13,04,04,3.70
2013,04,13,04,05,3.70
2013,04,13,04,06,3.70
2013,04,13,04,08,3.70
2013,04,13,04,09,3.80
2013,04,13,04,10,3.80
2013,04,13,04,11,3.80
2013,04,13,04,12,3.90
2013,04,13,04,13,3.90
2013,04,13,04,14,3.90
2013,04,13,04,15,3.90
2013,04,13,04,17,3.90
2013,04,13,04,18,4.00
2013,04,13,04,19,4.00
2013,04,13,04,20,4.00
2013,04,13,04,21,4.00
2013,04,13,04,22,4.00
2013,04,13,04,23,4.00
2013,04,13,04,24,4.00
2013,04,13,04,26,4.00
2013,04,13,04,27,4.00
2013,04,13,04,28,4.10
2013,04,13,04,29,4.10
2013,04,13,04,30,4.10
2013,04,13,04,32,4.00
2013,04,13,04,33,4.10
2013,04,13,04,34,4.00
2013,04,13,04,35,4.00
2013,04,13,04,36,4.00
2013,04,13,04,37,4.00
2013,04,13,04,38,4.10
2013,04,13,04,39,4.00
2013,04,13,04,40,4.00
2013,04,13,04,42,4.00
2013,04,13,04,43,4.00
2013,04,13,04,44,4.00
2013,04,13,04,45,4.00
2013,04,13,04,47,4.00
2013,04,13,04,48,4.00
2013,04,13,04,49,4.00
2013,04,13,04,50,4.00
2013,04,13,04,51,4.10
2013,04,13,04,52,4.00
2013,04,13,04,53,4.10
2013,04,13,04,54,4.10
2013,04,13,04,55,4.10
2013,04,13,04,56,4.10
2013,04,13,04,58,4.10
2013,04,13,04,59,4.10
2013,04,13,05,00,4.10
2013,04,13,05,01,4.10
2013,04,13,05,03,4.20
2013,04,13,05,04,4.20
2013,04,13,05,05,4.20
2013,04,13,05,06,4.20
2013,04,13,05,08,4.20
2013,04,13,05,09,4.20
2013,04,13,05,10,4.20
2013,04,13,05,12,4.20
2013,04,13,05,13,4.20
2013,04,13,05,14,4.20
2013,04,13,05,15,4.10
2013,04,13,05,16,4.10
2013,04,13,05,17,4.10
2013,04,13,05,18,4.10
2013,04,13,05,19,4.00
2013,04,13,05,20,4.00
2013,04,13,05,22,3.90
2013,04,13,05,23,3.90
2013,04,13,05,24,3.90
2013,04,13,05,25,3.80
2013,04,13,05,26,3.80
2013,04,13,05,27,3.80
2013,04,13,05,28,3.80
2013,04,13,05,29,3.80
2013,04,13,05,30,3.80
2013,04,13,05,32,3.80
2013,04,13,05,33,3.80
2013,04,13,05,34,3.80
2013,04,13,05,35,3.80
2013,04,13,05,36,3.80
2013,04,13,05,37,3.80
2013,04,13,05,38,3.80
2013,04,13,05,39,3.80
2013,04,13,05,40,3.80
2013,04,13,05,42,3.80
2013,04,13,05,43,3.80
2013,04,13,05,44,3.80
2013,04,13,05,45,3.80
2013,04,13,05,47,3.80
2013,04,13,05,48,3.80
2013,04,13,05,49,3.80
2013,04,13,05,50,3.80
2013,04,13,05,52,3.80
2013,04,13,05,53,3.80
2013,04,13,05,54,3.80
2013,04,13,05,55,3.80
2013,04,13,05,57,3.80
2013,04,13,05,58,3.70
2013,04,13,05,59,3.70
2013,04,13,06,00,3.70
2013,04,13,06,01,3.70
2013,04,13,06,02,3.70
2013,04,13,06,03,3.70
2013,04,13,06,04,3.70
2013,04,13,06,06,3.70
2013,04,13,06,07,3.70
2013,04,13,06,08,3.70
2013,04,13,06,09,3.70
2013,04,13,06,10,3.70
2013,04,13,06,12,3.70
2013,04,13,06,13,3.70
2013,04,13,06,14,3.80
2013,04,13,06,15,3.80
2013,04,13,06,17,3.80
2013,04,13,06,18,3.80
2013,04,13,06,19,3.80
2013,04,13,06,21,3.90
2013,04,13,06,22,3.90
2013,04,13,06,23,3.90
2013,04,13,06,24,3.90
2013,04,13,06,26,3.90
2013,04,13,06,27,3.90
2013,04,13,06,28,4.00
2013,04,13,06,29,4.00
2013,04,13,06,30,4.00
2013,04,13,06,31,4.10
2013,04,13,06,32,4.10
2013,04,13,06,33,4.10
2013,04,13,06,34,4.10
2013,04,13,06,35,4.20
2013,04,13,06,37,4.20
2013,04,13,06,38,4.20
2013,04,13,06,39,4.30
2013,04,13,06,41,4.30
2013,04,13,06,42,4.30
2013,04,13,06,43,4.30
2013,04,13,06,44,4.40
2013,04,13,06,46,4.40
2013,04,13,06,47,4.40
2013,04,13,06,48,4.40
2013,04,13,06,49,4.50
2013,04,13,06,51,4.50
2013,04,13,06,52,4.50
2013,04,13,06,53,4.40
2013,04,13,06,54,4.40
2013,04,13,06,56,4.40
2013,04,13,06,57,4.40
2013,04,13,06,58,4.40
2013,04,13,06,59,4.40
2013,04,13,07,01,4.30
2013,04,13,07,02,4.30
2013,04,13,07,03,4.30
2013,04,13,07,04,4.30
2013,04,13,07,06,4.30
2013,04,13,07,07,4.30
2013,04,13,07,08,4.30
2013,04,13,07,09,4.30
2013,04,13,07,11,4.20
2013,04,13,07,12,4.20
2013,04,13,07,13,4.20
2013,04,13,07,14,4.20
2013,04,13,07,15,4.20
2013,04,13,07,17,4.20
2013,04,13,07,18,4.20
2013,04,13,07,19,4.10
2013,04,13,07,20,4.10
2013,04,13,07,21,4.10
2013,04,13,07,22,4.10
2013,04,13,07,23,4.10
2013,04,13,07,24,4.00
2013,04,13,07,25,4.00
2013,04,13,07,26,3.90
2013,04,13,07,27,3.90
2013,04,13,07,28,3.90
2013,04,13,07,29,3.90
2013,04,13,07,30,3.90
2013,04,13,07,31,3.80
2013,04,13,07,32,3.80
2013,04,13,07,33,3.80
2013,04,13,07,34,3.80
2013,04,13,07,35,3.80
2013,04,13,07,36,3.80
2013,04,13,07,37,3.80
2013,04,13,07,38,3.70
2013,04,13,07,39,3.70
2013,04,13,07,40,3.70
2013,04,13,07,41,3.70
2013,04,13,07,42,3.70
2013,04,13,07,43,3.70
2013,04,13,07,44,3.70
2013,04,13,07,45,3.70
2013,04,13,07,47,3.70
2013,04,13,07,48,3.80
2013,04,13,07,49,3.80
2013,04,13,07,50,3.80
2013,04,13,07,52,3.80
2013,04,13,07,53,3.80
2013,04,13,07,54,3.80
2013,04,13,07,55,3.80
2013,04,13,07,56,3.80
2013,04,13,07,57,3.80
2013,04,13,07,58,3.80
2013,04,13,07,59,3.80
2013,04,13,08,01,3.80
2013,04,13,08,02,3.90
2013,04,13,08,03,3.90
2013,04,13,08,04,3.90
2013,04,13,08,05,3.90
2013,04,13,08,06,4.00
2013,04,13,08,07,4.00
2013,04,13,08,09,4.10
2013,04,13,08,10,4.10
2013,04,13,08,11,4.20
2013,04,13,08,12,4.20
2013,04,13,08,13,4.20
2013,04,13,08,14,4.20
2013,04,13,08,15,4.20
2013,04,13,08,16,4.30
2013,04,13,08,17,4.30
2013,04,13,08,18,4.30
2013,04,13,08,19,4.30
2013,04,13,08,20,4.30
2013,04,13,08,22,4.30
2013,04,13,08,23,4.30
2013,04,13,08,24,4.30
2013,04,13,08,25,4.30
2013,04,13,08,27,4.30
2013,04,13,08,28,4.30
2013,04,13,08,29,4.30
2013,04,13,08,30,4.20
2013,04,13,08,32,4.30
2013,04,13,08,33,4.20
2013,04,13,08,34,4.20
2013,04,13,08,35,4.20
2013,04,13,08,36,4.20
2013,04,13,08,37,4.20
2013,04,13,08,38,4.20
2013,04,13,08,39,4.20
2013,04,13,08,41,4.20
2013,04,13,08,42,4.20
2013,04,13,08,43,4.20
2013,04,13,08,44,4.20
2013,04,13,08,46,4.20
2013,04,13,08,47,4.30
2013,04,13,08,48,4.30
2013,04,13,08,49,4.30
2013,04,13,08,50,4.30
2013,04,13,08,51,4.30
2013,04,13,08,52,4.30
2013,04,13,08,53,4.40
2013,04,13,08,54,4.40
2013,04,13,08,55,4.40
2013,04,13,08,56,4.40
2013,04,13,08,57,4.50
2013,04,13,08,58,4.50
2013,04,13,08,59,4.60
2013,04,13,09,00,4.60
2013,04,13,09,01,4.60
2013,04,13,09,02,4.70
2013,04,13,09,03,4.70
2013,04,13,09,04,4.80
2013,04,13,09,06,4.80
2013,04,13,09,07,4.90
2013,04,13,09,08,4.90
2013,04,13,09,09,5.00
2013,04,13,09,11,5.10
2013,04,13,09,12,5.10
2013,04,13,09,13,5.10
2013,04,13,09,14,5.10
2013,04,13,09,15,5.10
2013,04,13,09,16,5.10
2013,04,13,09,17,5.10
2013,04,13,09,18,5.10
2013,04,13,09,19,5.10
2013,04,13,09,20,5.10
2013,04,13,09,21,5.10
2013,04,13,09,22,5.10
2013,04,13,09,23,5.10
2013,04,13,09,24,5.10
2013,04,13,09,25,5.10
2013,04,13,09,26,5.10
2013,04,13,09,27,5.10
2013,04,13,09,28,5.10
2013,04,13,09,29,5.10
2013,04,13,09,30,5.20
2013,04,13,09,32,5.20
2013,04,13,09,33,5.20
2013,04,13,09,34,5.20
2013,04,13,09,35,5.20
2013,04,13,09,37,5.20
2013,04,13,09,38,5.20
2013,04,13,09,39,5.20
2013,04,13,09,41,5.20
2013,04,13,09,42,5.20
2013,04,13,09,43,5.20
2013,04,13,09,44,5.20
2013,04,13,09,46,5.20
2013,04,13,09,47,5.30
2013,04,13,09,48,5.30
2013,04,13,09,50,5.30
2013,04,13,09,51,5.30
2013,04,13,09,52,5.30
2013,04,13,09,53,5.40
2013,04,13,09,55,5.40
2013,04,13,09,56,5.30
2013,04,13,09,57,5.40
2013,04,13,09,58,5.30
2013,04,13,09,59,5.30
2013,04,13,10,00,5.30
2013,04,13,10,01,5.30
2013,04,13,10,02,5.30
2013,04,13,10,03,5.40
2013,04,13,10,05,5.40
2013,04,13,10,06,5.40
2013,04,13,10,07,5.50
2013,04,13,10,08,5.50
2013,04,13,10,10,5.60
2013,04,13,10,11,5.70
2013,04,13,10,12,5.80
2013,04,13,10,13,5.80
2013,04,13,10,14,5.80
2013,04,13,10,15,5.90
2013,04,13,10,16,6.00
2013,04,13,10,17,5.90
2013,04,13,10,18,5.90
2013,04,13,10,19,5.90
2013,04,13,10,20,6.00
2013,04,13,10,21,6.10
2013,04,13,10,22,6.10
2013,04,13,10,23,6.30
2013,04,13,10,24,6.30
2013,04,13,10,25,6.40
2013,04,13,10,26,6.40
2013,04,13,10,27,6.50
2013,04,13,10,28,6.50
2013,04,13,10,30,6.50
2013,04,13,10,31,6.50
2013,04,13,10,32,6.50
2013,04,13,10,33,6.60
2013,04,13,10,34,6.60
2013,04,13,10,36,6.60
2013,04,13,10,37,6.50
2013,04,13,10,38,6.40
2013,04,13,10,39,6.40
2013,04,13,10,41,6.40
2013,04,13,10,42,6.50
2013,04,13,10,43,6.60
2013,04,13,10,44,6.60
2013,04,13,10,45,6.70
2013,04,13,10,47,6.70
2013,04,13,10,48,6.80
2013,04,13,10,49,6.80
2013,04,13,10,50,6.80
2013,04,13,10,52,6.90
2013,04,13,10,53,6.90
2013,04,13,10,54,7.10
2013,04,13,10,55,7.20
2013,04,13,10,56,7.20
2013,04,13,10,57,7.20
2013,04,13,10,58,7.30
2013,04,13,10,59,7.30
2013,04,13,11,01,7.20
2013,04,13,11,02,7.20
2013,04,13,11,03,7.10
2013,04,13,11,04,7.10
2013,04,13,11,06,7.00
2013,04,13,11,07,6.90
2013,04,13,11,08,6.90
2013,04,13,11,09,6.90
2013,04,13,11,11,7.00
2013,04,13,11,12,7.20
2013,04,13,11,13,7.30
2013,04,13,11,14,7.30
2013,04,13,11,16,7.40
2013,04,13,11,17,7.50
2013,04,13,11,18,7.60
2013,04,13,11,19,7.60
2013,04,13,11,21,7.70
2013,04,13,11,22,7.80
2013,04,13,11,23,8.00
2013,04,13,11,24,8.10
2013,04,13,11,26,8.20
2013,04,13,11,27,8.20
2013,04,13,11,28,8.30
2013,04,13,11,29,8.30
2013,04,13,11,30,8.30
2013,04,13,11,32,8.20
2013,04,13,11,33,8.20
2013,04,13,11,34,8.10
2013,04,13,11,36,8.10
2013,04,13,11,37,8.10
2013,04,13,11,38,8.00
2013,04,13,11,39,7.90
2013,04,13,11,41,7.90
2013,04,13,11,42,8.00
2013,04,13,11,43,7.90
2013,04,13,11,44,7.90
2013,04,13,11,46,8.00
2013,04,13,11,47,8.00
2013,04,13,11,48,8.10
2013,04,13,11,50,8.00
2013,04,13,11,51,7.90
2013,04,13,11,52,7.90
2013,04,13,11,53,7.80
2013,04,13,11,54,7.80
2013,04,13,11,55,7.80
2013,04,13,11,57,7.80
2013,04,13,11,58,7.80
2013,04,13,11,59,7.90
2013,04,13,12,01,7.90
2013,04,13,12,02,8.00
2013,04,13,12,03,8.10
2013,04,13,12,04,8.20
2013,04,13,12,06,8.30
2013,04,13,12,07,8.40
2013,04,13,12,08,8.40
2013,04,13,12,10,8.60
2013,04,13,12,11,8.60
2013,04,13,12,12,8.60
2013,04,13,12,13,8.60
2013,04,13,12,15,8.60
2013,04,13,12,16,8.60
2013,04,13,12,17,8.50
2013,04,13,12,18,8.50
2013,04,13,12,19,8.60
2013,04,13,12,21,8.60
2013,04,13,12,22,8.60
2013,04,13,12,23,8.60
2013,04,13,12,24,8.60
2013,04,13,12,26,8.60
2013,04,13,12,27,8.50
2013,04,13,12,28,8.40
2013,04,13,12,29,8.30
2013,04,13,12,31,8.20
2013,04,13,12,32,8.10
2013,04,13,12,33,7.90
2013,04,13,12,34,7.80
2013,04,13,12,36,7.80
2013,04,13,12,37,7.80
2013,04,13,12,38,7.80
2013,04,13,12,39,7.80
2013,04,13,12,41,7.80
2013,04,13,12,42,7.90
2013,04,13,12,43,7.90
2013,04,13,12,44,8.00
2013,04,13,12,46,8.00
2013,04,13,12,47,8.10
2013,04,13,12,48,8.10
2013,04,13,12,50,8.20
2013,04,13,12,51,8.20
2013,04,13,12,52,8.30
2013,04,13,12,53,8.30
2013,04,13,12,55,8.30
2013,04,13,12,56,8.30
2013,04,13,12,57,8.10
2013,04,13,12,58,8.10
2013,04,13,12,59,8.00
2013,04,13,13,01,7.90
2013,04,13,13,02,7.80
2013,04,13,13,03,7.80
2013,04,13,13,04,7.80
2013,04,13,13,06,7.70
2013,04,13,13,07,7.70
2013,04,13,13,08,7.70
2013,04,13,13,09,7.70
2013,04,13,13,11,7.70
2013,04,13,13,12,7.70
2013,04,13,13,13,7.70
2013,04,13,13,14,7.70
2013,04,13,13,16,7.70
2013,04,13,13,17,7.70
2013,04,13,13,18,7.80
2013,04,13,13,19,7.80
2013,04,13,13,21,7.80
2013,04,13,13,22,7.90
2013,04,13,13,23,7.90
2013,04,13,13,25,7.90
2013,04,13,13,26,7.90
2013,04,13,13,27,7.90
2013,04,13,13,29,7.90
2013,04,13,13,30,7.90
2013,04,13,13,31,8.00
2013,04,13,13,32,8.10
2013,04,13,13,34,8.10
2013,04,13,13,35,8.10
2013,04,13,13,36,8.20
2013,04,13,13,37,8.20
2013,04,13,13,39,8.20
2013,04,13,13,40,8.30
2013,04,13,13,41,8.30
2013,04,13,13,42,8.30
2013,04,13,13,43,8.30
2013,04,13,13,44,8.30
2013,04,13,13,45,8.30
2013,04,13,13,46,8.30
2013,04,13,13,48,8.20
2013,04,13,13,49,8.20
2013,04,13,13,50,8.10
2013,04,13,13,51,8.10
2013,04,13,13,53,8.10
2013,04,13,13,54,8.00
2013,04,13,13,55,8.00
2013,04,13,13,56,7.90
2013,04,13,13,58,7.90
2013,04,13,13,59,7.90
2013,04,13,14,01,7.80
2013,04,13,14,02,7.80
2013,04,13,14,03,7.70
2013,04,13,14,04,7.70
2013,04,13,14,05,7.70
2013,04,13,14,06,7.70
2013,04,13,14,07,7.60
2013,04,13,14,08,7.60
2013,04,13,14,09,7.40
2013,04,13,14,10,7.40
2013,04,13,14,11,7.30
2013,04,13,14,13,7.30
2013,04,13,14,14,7.20
2013,04,13,14,15,7.20
2013,04,13,14,16,7.20
2013,04,13,14,18,7.20
2013,04,13,14,19,7.10
2013,04,13,14,20,7.10
2013,04,13,14,21,7.10
2013,04,13,14,22,7.10
2013,04,13,14,24,7.10
2013,04,13,14,25,7.10
2013,04,13,14,26,7.10
2013,04,13,14,27,7.10
2013,04,13,14,28,7.10
2013,04,13,14,30,7.00
2013,04,13,14,31,7.00
2013,04,13,14,32,6.90
2013,04,13,14,33,6.90
2013,04,13,14,34,6.90
2013,04,13,14,35,6.90
2013,04,13,14,36,6.80
2013,04,13,14,37,6.90
2013,04,13,14,38,6.90
2013,04,13,14,39,6.90
2013,04,13,14,40,6.90
2013,04,13,14,41,6.80
2013,04,13,14,43,6.80
2013,04,13,14,44,6.90
2013,04,13,14,45,6.90
2013,04,13,14,46,6.90
2013,04,13,14,47,6.90
2013,04,13,14,48,6.90
2013,04,13,14,49,6.80
2013,04,13,14,50,6.80
2013,04,13,14,52,6.80
2013,04,13,14,53,6.80
2013,04,13,14,54,6.80
2013,04,13,14,55,6.80
2013,04,13,14,56,6.80
2013,04,13,14,57,6.80
2013,04,13,14,58,6.80
2013,04,13,14,59,6.90
2013,04,13,15,00,6.90
2013,04,13,15,02,6.90
2013,04,13,15,03,6.90
2013,04,13,15,04,7.00
2013,04,13,15,05,7.00
2013,04,13,15,07,7.00
2013,04,13,15,08,7.00
2013,04,13,15,09,7.00
2013,04,13,15,10,7.00
2013,04,13,15,12,7.00
2013,04,13,15,13,7.00
2013,04,13,15,14,7.00
2013,04,13,15,15,7.00
2013,04,13,15,17,6.90
2013,04,13,15,18,6.80
2013,04,13,15,19,6.80
2013,04,13,15,20,6.70
2013,04,13,15,22,6.70
2013,04,13,15,23,6.70
2013,04,13,15,24,6.70
2013,04,13,15,25,6.70
2013,04,13,15,26,6.60
2013,04,13,15,27,6.60
2013,04,13,15,28,6.60
2013,04,13,15,29,6.60
2013,04,13,15,30,6.60
2013,04,13,15,31,6.60
2013,04,13,15,33,6.60
2013,04,13,15,34,6.60
2013,04,13,15,35,6.60
2013,04,13,15,36,6.60
2013,04,13,15,37,6.60
2013,04,13,15,38,6.50
2013,04,13,15,39,6.50
2013,04,13,15,40,6.50
2013,04,13,15,42,6.40
2013,04,13,15,43,6.40
2013,04,13,15,44,6.40
2013,04,13,15,45,6.40
2013,04,13,15,47,6.40
2013,04,13,15,48,6.40
2013,04,13,15,49,6.40
2013,04,13,15,51,6.40
2013,04,13,15,52,6.40
2013,04,13,15,53,6.40
2013,04,13,15,54,6.40
2013,04,13,15,56,6.40
2013,04,13,15,57,6.40
2013,04,13,15,58,6.40
2013,04,13,15,59,6.40
2013,04,13,16,01,6.40
2013,04,13,16,02,6.40
2013,04,13,16,03,6.40
2013,04,13,16,04,6.40
2013,04,13,16,06,6.40
2013,04,13,16,07,6.40
2013,04,13,16,08,6.40
2013,04,13,16,10,6.40
2013,04,13,16,11,6.40
2013,04,13,16,12,6.40
2013,04,13,16,13,6.40
2013,04,13,16,15,6.40
2013,04,13,16,16,6.40
2013,04,13,16,17,6.40
2013,04,13,16,18,6.40
2013,04,13,16,20,6.40
2013,04,13,16,21,6.50
2013,04,13,16,22,6.50
2013,04,13,16,23,6.50
2013,04,13,16,25,6.50
2013,04,13,16,26,6.50
2013,04,13,16,27,6.50
2013,04,13,16,28,6.50
2013,04,13,16,29,6.50
2013,04,13,16,31,6.50
2013,04,13,16,32,6.50
2013,04,13,16,33,6.50
2013,04,13,16,34,6.50
2013,04,13,16,35,6.50
2013,04,13,16,37,6.50
2013,04,13,16,38,6.50
2013,04,13,16,39,6.40
2013,04,13,16,40,6.40
2013,04,13,16,42,6.40
2013,04,13,16,43,6.30
2013,04,13,16,44,6.30
2013,04,13,16,45,6.30
2013,04,13,16,47,6.30
2013,04,13,16,48,6.30
2013,04,13,16,49,6.20
2013,04,13,16,50,6.20
2013,04,13,16,51,6.20
2013,04,13,16,53,6.20
2013,04,13,16,54,6.20
2013,04,13,16,55,6.10
2013,04,13,16,57,6.10
2013,04,13,16,58,6.10
2013,04,13,16,59,6.10
2013,04,13,17,00,6.10
2013,04,13,17,01,6.10
2013,04,13,17,03,6.10
2013,04,13,17,04,6.00
2013,04,13,17,05,6.00
2013,04,13,17,06,6.00
2013,04,13,17,08,6.00
2013,04,13,17,09,5.90
2013,04,13,17,10,5.90
2013,04,13,17,11,5.90
2013,04,13,17,13,5.90
2013,04,13,17,14,5.80
2013,04,13,17,15,5.80
2013,04,13,17,16,5.80
2013,04,13,17,18,5.80
2013,04,13,17,19,5.80
2013,04,13,17,20,5.80
2013,04,13,17,21,5.80
2013,04,13,17,22,5.80
2013,04,13,17,24,5.80
2013,04,13,17,25,5.80
2013,04,13,17,26,5.80
2013,04,13,17,27,5.90
2013,04,13,17,29,5.90
2013,04,13,17,30,5.90
2013,04,13,17,31,5.90
2013,04,13,17,33,5.90
2013,04,13,17,34,6.00
2013,04,13,17,35,6.00
2013,04,13,17,37,6.00
2013,04,13,17,38,6.00
2013,04,13,17,39,5.90
2013,04,13,17,40,5.90
2013,04,13,17,42,5.90
2013,04,13,17,43,5.90
2013,04,13,17,44,5.90
2013,04,13,17,46,6.00
2013,04,13,17,47,6.00
2013,04,13,17,48,6.00
2013,04,13,17,49,6.10
2013,04,13,17,51,6.10
2013,04,13,17,52,6.10
2013,04,13,17,53,6.10
2013,04,13,17,55,6.10
2013,04,13,17,56,6.10
2013,04,13,17,57,6.10
2013,04,13,17,58,6.00
2013,04,13,17,59,6.00
2013,04,13,18,00,6.00
2013,04,13,18,01,6.00
2013,04,13,18,02,6.00
2013,04,13,18,03,6.00
2013,04,13,18,05,6.00
2013,04,13,18,06,6.00
2013,04,13,18,07,5.90
2013,04,13,18,08,5.80
2013,04,13,18,10,5.80
2013,04,13,18,11,5.80
2013,04,13,18,12,5.80
2013,04,13,18,13,5.80
2013,04,13,18,14,5.70
2013,04,13,18,16,5.70
2013,04,13,18,17,5.70
2013,04,13,18,18,5.70
2013,04,13,18,19,5.70
2013,04,13,18,20,5.70
2013,04,13,18,22,5.70
2013,04,13,18,23,5.70
2013,04,13,18,24,5.70
2013,04,13,18,25,5.70
2013,04,13,18,27,5.70
2013,04,13,18,28,5.70
2013,04,13,18,29,5.70
2013,04,13,18,31,5.70
2013,04,13,18,32,5.70
2013,04,13,18,33,5.70
2013,04,13,18,34,5.70
2013,04,13,18,35,5.70
2013,04,13,18,37,5.70
2013,04,13,18,38,5.70
2013,04,13,18,39,5.70
2013,04,13,18,40,5.70
2013,04,13,18,42,5.80
2013,04,13,18,43,5.80
2013,04,13,18,44,5.80
2013,04,13,18,45,5.80
2013,04,13,18,47,5.80
2013,04,13,18,48,5.80
2013,04,13,18,49,5.80
2013,04,13,18,51,5.70
2013,04,13,18,52,5.70
2013,04,13,18,53,5.70
2013,04,13,18,54,5.80
2013,04,13,18,56,5.80
2013,04,13,18,57,5.70
2013,04,13,18,58,5.70
2013,04,13,18,59,5.70
2013,04,13,19,00,5.70
2013,04,13,19,02,5.70
2013,04,13,19,03,5.70
2013,04,13,19,04,5.70
2013,04,13,19,05,5.70
2013,04,13,19,07,5.70
2013,04,13,19,08,5.70
2013,04,13,19,09,5.70
2013,04,13,19,10,5.70
2013,04,13,19,11,5.70
2013,04,13,19,13,5.70
2013,04,13,19,14,5.70
2013,04,13,19,15,5.60
2013,04,13,19,16,5.70
2013,04,13,19,18,5.70
2013,04,13,19,19,5.60
2013,04,13,19,20,5.60
2013,04,13,19,21,5.60
2013,04,13,19,22,5.60
2013,04,13,19,24,5.60
2013,04,13,19,25,5.60
2013,04,13,19,26,5.60
2013,04,13,19,28,5.60
2013,04,13,19,29,5.60
2013,04,13,19,30,5.60
2013,04,13,19,31,5.60
2013,04,13,19,33,5.60
2013,04,13,19,34,5.60
2013,04,13,19,35,5.60
2013,04,13,19,36,5.60
2013,04,13,19,38,5.60
2013,04,13,19,39,5.60
2013,04,13,19,40,5.60
2013,04,13,19,41,5.60
2013,04,13,19,43,5.60
2013,04,13,19,44,5.60
2013,04,13,19,45,5.60
2013,04,13,19,46,5.60
2013,04,13,19,47,5.60
2013,04,13,19,49,5.60
2013,04,13,19,50,5.60
2013,04,13,19,51,5.60
2013,04,13,19,52,5.60
2013,04,13,19,53,5.60
2013,04,13,19,54,5.60
2013,04,13,19,55,5.60
2013,04,13,19,56,5.60
2013,04,13,19,57,5.60
2013,04,13,19,58,5.60
2013,04,13,19,59,5.60
2013,04,13,20,00,5.50
2013,04,13,20,02,5.50
2013,04,13,20,03,5.50
2013,04,13,20,04,5.50
2013,04,13,20,05,5.50
2013,04,13,20,07,5.50
2013,04,13,20,08,5.40
2013,04,13,20,09,5.40
2013,04,13,20,10,5.40
2013,04,13,20,12,5.40
2013,04,13,20,13,5.30
2013,04,13,20,14,5.30
2013,04,13,20,15,5.30
2013,04,13,20,17,5.30
2013,04,13,20,18,5.30
2013,04,13,20,19,5.30
2013,04,13,20,20,5.20
2013,04,13,20,22,5.20
2013,04,13,20,23,5.20
2013,04,13,20,24,5.20
2013,04,13,20,25,5.20
2013,04,13,20,27,5.20
2013,04,13,20,28,5.20
2013,04,13,20,29,5.20
2013,04,13,20,30,5.20
2013,04,13,20,32,5.20
2013,04,13,20,33,5.30
2013,04,13,20,34,5.30
2013,04,13,20,36,5.30
2013,04,13,20,37,5.30
2013,04,13,20,38,5.30
2013,04,13,20,39,5.30
2013,04,13,20,40,5.30
2013,04,13,20,42,5.20
2013,04,13,20,43,5.20
2013,04,13,20,44,5.20
2013,04,13,20,45,5.20
2013,04,13,20,47,5.20
2013,04,13,20,48,5.20
2013,04,13,20,49,5.20
2013,04,13,20,50,5.20
2013,04,13,20,52,5.20
2013,04,13,20,53,5.20
2013,04,13,20,54,5.20
2013,04,13,20,55,5.20
2013,04,13,20,57,5.20
2013,04,13,20,58,5.20
2013,04,13,20,59,5.20
2013,04,13,21,00,5.20
2013,04,13,21,02,5.20
2013,04,13,21,03,5.20
2013,04,13,21,04,5.20
2013,04,13,21,05,5.20
2013,04,13,21,07,5.20
2013,04,13,21,08,5.20
2013,04,13,21,09,5.20
2013,04,13,21,10,5.20
2013,04,13,21,12,5.20
2013,04,13,21,13,5.20
2013,04,13,21,14,5.20
2013,04,13,21,15,5.20
2013,04,13,21,17,5.20
2013,04,13,21,18,5.20
2013,04,13,21,19,5.20
2013,04,13,21,20,5.20
2013,04,13,21,22,5.20
2013,04,13,21,23,5.20
2013,04,13,21,24,5.20
2013,04,13,21,25,5.20
2013,04,13,21,27,5.20
2013,04,13,21,28,5.20
2013,04,13,21,29,5.20